ED2YAA-3 Weather Reports


time (UTC)temp
C
wind
direction
speed
KPH
gust
KPH
rain 1hr
cm
rain 24hr
cm
rain mn
cm
humidity
%
barometer
mb
20260503213529 15 135 0.0 0.0 0.00 0.00 0.00 84 992.6
20260503204214 15 338 0.0 0.0 0.00 0.00 0.00 84 991.0
20260503203529 15 338 0.0 0.0 0.00 0.00 0.00 83 991.0
20260503194214 15 338 0.0 0.0 0.00 0.00 0.00 82 990.6
20260503193530 16 338 0.0 0.0 0.00 0.00 0.00 81 990.6
20260503184215 16 338 0.0 0.0 0.00 0.00 0.00 81 990.5
20260503183530 16 338 0.0 0.0 0.00 0.00 0.00 81 990.4
20260503174215 16 90 0.0 0.0 0.00 0.00 0.00 79 989.7
20260503173530 16 90 0.0 0.0 0.00 0.00 0.00 79 989.8
20260503070302 20 338 0.0 0.0 0.00 0.00 0.00 74 992.2
20260503060302 13 338 0.0 0.0 0.00 0.00 0.00 90 992.3
20260503053527 12 338 0.0 0.0 0.00 0.00 0.00 90 992.0
20260503050302 12 338 0.0 0.0 0.00 0.00 0.00 90 992.0
20260503043529 12 338 0.0 0.0 0.00 0.00 0.00 90 991.9
20260503040301 12 338 0.0 0.0 0.00 0.00 0.00 90 991.9
20260503033528 12 68 0.0 0.0 0.00 0.00 0.00 89 992.0
20260503030301 12 68 0.0 0.0 0.00 0.00 0.00 89 992.2
20260503023528 13 0 0.0 0.0 0.00 0.00 0.00 89 992.1
20260503020301 13 135 0.0 0.0 0.00 0.00 0.00 88 992.7
20260503013528 13 68 0.0 0.0 0.00 0.00 0.00 88 992.7
20260503010300 13 112 0.0 0.0 0.00 0.00 0.00 88 993.1
20260503003527 13 45 0.0 0.0 0.00 0.00 0.00 88 993.0
20260503000301 14 45 0.0 0.0 0.00 0.00 0.00 88 993.2
20260502233528 14 112 0.0 0.0 0.00 0.00 0.00 87 993.3
20260502230301 15 112 0.0 0.0 0.00 0.00 0.00 87 993.2
20260502224331 15 112 0.0 0.0 0.00 0.00 0.00 87 993.3
20260502223527 15 112 0.0 0.0 0.00 0.00 0.00 87 993.3
20260502214330 15 135 0.0 0.0 0.00 0.00 0.00 87 993.1